"Pseudo-MPEC" for P11XWnV

Created 2024 Sep 5 19:22:18 UT using Find_Orb

Click here for an explanation of pseudo-MPECs

 
 Astrometry: 
     P11XWnV  C2024 07 31.52535922 53 25.928-08 06 23.45   ~94Dq 21.21wXNEOCPF52
     P11XWnV  C2024 07 31.53863222 53 25.756-08 06 43.65   ~94Dq 21.55wXNEOCPF52
     P11XWnV  C2024 07 31.55187522 53 25.597-08 07 03.93   ~94Dq 21.51wXNEOCPF52
     P11XWnV* C2024 09 04.39165622 32 31.046-25 10 45.71   ~94Bb 21.12wXNEOCPF51
     P11XWnV  C2024 09 04.40266722 32 30.447-25 11 03.18   ~94Bb 21.14wXNEOCPF51
     P11XWnV  C2024 09 04.41365922 32 29.851-25 11 20.77   ~94Bb 20.98wXNEOCPF51
     P11XWnV  C2024 09 04.43255222 32 28.825-25 11 50.91   ~94Bb 21.12wXNEOCPF51
     P11XWnV  C2024 09 04.51257222 32 24.514-25 13 57.70   ~94KM 21.00GVNEOCPF51
     P11XWnV  C2024 09 04.51321622 32 24.495-25 13 58.62   ~94KM 20.90GVNEOCPF51
     P11XWnV  C2024 09 05.38455522 31 42.308-25 36 53.82   ~95Ib 21.42GVNEOCPF51

Station data:
(F51) Pan-STARRS 1, Haleakala  (N20.707234 W156.255910)  US/Hawaii.
   Observers J. Bulger, T. Lowe, A. Schultz, M. Willman. Measurers K.
   Chambers, S. Chastel, T. de Boer, L. Denneau, J. Fairlamb, H. Flewelling,
   M. Huber, C.-C. Lin, E. Magnier, Y. Ramanjooloo, R. Wainscoat, R. Weryk.
   1.8-m Ritchey-Chrétien + CCD.
(F52) Pan-STARRS 2, Haleakala  (N20.707382 W156.255910)  US/Hawaii.
   Observers J. Bulger, T. Dukes, T. Lowe, A. Schultz, M. Willman. Measurers
   K. Chambers, S. Chastel, T. de Boer, L. Denneau, J. Fairlamb, H.
   Flewelling, M. Huber, C.-C. Lin, E. Magnier, Y. Ramanjooloo, R. Wainscoat,
   R. Weryk. 1.8-m Ritchey-Chrétien + CCD.

Orbital elements:  P11XWnV
   Perihelion 2024 Sep 2.75122 +/- 0.744 TT = 18:01:45 (JD 2460556.25122)
Epoch 2024 Sep  5.0 TT = JDT 2460558.5   Earth MOID: 0.7682      AutoNEOCP
M   0.86723589 +/- 0.28             (J2000 ecliptic)
n   0.38564761 +/- 0.000631         Peri.  195.20343 +/- 0.32
a   1.86928540 +/- 0.00204          Node   142.44723 +/- 0.015
e   0.0486980 +/- 0.000282          Incl.   24.66985 +/- 0.053
P   2.556/933.477d         H 19.65  G  0.15   U  7.8
q 1.77825488 +/- 0.00141    Q 1.96031591 +/- 0.00267
From 10 observations 2024 July 31-Sept. 5; mean residual 0".07
Residuals in arcseconds: 
240731 F52  .16+  .06-    240904 F51  .02+  .06+    240904 F51  .08+  .04+    
240731 F52  .06-  .04+    240904 F51  .00   .02+    240905 F51  .00   .00     
240731 F52  .10-  .02+    240904 F51  .04-  .00     
240904 F51  .06+  .08-    240904 F51  .13-  .05-    

Ephemerides (geocentric):
Date (UTC) HH   RA             Dec           delta  r     elong  mag " sig PA
---- --------  ------------   ------------  ------ ------ -----  --- --------
2024 09 05 19  22 31 22.324   -25 47 19.41  .79813 1.7783 159.7 21.1 .272 117
2024 09 05 20  22 31 20.299   -25 48 23.93  .79827 1.7783 159.6 21.1 .281 117
2024 09 05 21  22 31 18.276   -25 49 28.38  .79841 1.7783 159.6 21.1 .291 117
2024 09 05 22  22 31 16.253   -25 50 32.77  .79855 1.7783 159.5 21.1 .300 117
2024 09 05 23  22 31 14.232   -25 51 37.11  .79869 1.7783 159.5 21.1 .309 117
2024 09 06 00  22 31 12.211   -25 52 41.39  .79883 1.7783 159.5 21.1 .318 117
2024 09 06 01  22 31 10.192   -25 53 45.60  .79897 1.7783 159.4 21.1 .327 117
2024 09 06 02  22 31 08.174   -25 54 49.76  .79911 1.7783 159.4 21.1 .336 117
2024 09 06 03  22 31 06.157   -25 55 53.85  .79925 1.7783 159.3 21.1 .345 117
2024 09 06 04  22 31 04.141   -25 56 57.89  .79940 1.7783 159.3 21.1 .355 117
2024 09 06 05  22 31 02.126   -25 58 01.86  .79954 1.7783 159.2 21.1 .364 118
2024 09 06 06  22 31 00.112   -25 59 05.78  .79968 1.7783 159.2 21.1 .373 118
2024 09 06 07  22 30 58.099   -26 00 09.63  .79982 1.7783 159.1 21.1 .382 118
2024 09 06 08  22 30 56.088   -26 01 13.43  .79997 1.7783 159.1 21.1 .391 118
2024 09 06 09  22 30 54.078   -26 02 17.16  .80011 1.7783 159.0 21.1 .400 118
2024 09 06 10  22 30 52.069   -26 03 20.83  .80026 1.7783 159.0 21.1 .410 118
2024 09 06 11  22 30 50.061   -26 04 24.44  .80040 1.7783 158.9 21.1 .419 118
2024 09 06 12  22 30 48.054   -26 05 27.99  .80055 1.7783 158.9 21.1 .428 118
2024 09 06 13  22 30 46.049   -26 06 31.48  .80070 1.7783 158.9 21.1 .437 119
2024 09 06 14  22 30 44.044   -26 07 34.91  .80084 1.7783 158.8 21.1 .446 119
2024 09 06 15  22 30 42.041   -26 08 38.28  .80099 1.7783 158.8 21.1 .456 119
2024 09 06 16  22 30 40.039   -26 09 41.59  .80114 1.7783 158.7 21.1 .465 119
2024 09 06 17  22 30 38.039   -26 10 44.83  .80128 1.7783 158.7 21.1 .474 119
2024 09 06 18  22 30 36.039   -26 11 48.02  .80143 1.7783 158.6 21.1 .483 119
2024 09 06 19  22 30 34.041   -26 12 51.14  .80158 1.7783 158.6 21.1 .492 119
2024 09 06 20  22 30 32.044   -26 13 54.20  .80173 1.7783 158.5 21.1 .502 120
2024 09 06 21  22 30 30.049   -26 14 57.20  .80188 1.7783 158.5 21.1 .511 120
2024 09 06 22  22 30 28.054   -26 16 00.14  .80203 1.7783 158.4 21.1 .520 120
2024 09 06 23  22 30 26.061   -26 17 03.02  .80218 1.7783 158.4 21.1 .529 120
2024 09 07 00  22 30 24.069   -26 18 05.83  .80233 1.7783 158.3 21.1 .539 120
2024 09 07 01  22 30 22.079   -26 19 08.58  .80248 1.7783 158.3 21.1 .548 120
2024 09 07 02  22 30 20.090   -26 20 11.27  .80263 1.7783 158.2 21.1 .557 121
2024 09 07 03  22 30 18.102   -26 21 13.90  .80278 1.7783 158.2 21.2 .567 121
2024 09 07 04  22 30 16.115   -26 22 16.47  .80294 1.7783 158.2 21.2 .576 121
2024 09 07 05  22 30 14.130   -26 23 18.97  .80309 1.7783 158.1 21.2 .585 121
2024 09 07 06  22 30 12.146   -26 24 21.41  .80324 1.7783 158.1 21.2 .594 121
2024 09 07 07  22 30 10.164   -26 25 23.79  .80339 1.7783 158.0 21.2 .604 121
2024 09 07 08  22 30 08.183   -26 26 26.11  .80355 1.7783 158.0 21.2 .613 121
2024 09 07 09  22 30 06.203   -26 27 28.36  .80370 1.7783 157.9 21.2 .622 122
2024 09 07 10  22 30 04.225   -26 28 30.56  .80386 1.7783 157.9 21.2 .632 122
2024 09 07 11  22 30 02.248   -26 29 32.69  .80401 1.7783 157.8 21.2 .641 122
2024 09 07 12  22 30 00.272   -26 30 34.75  .80417 1.7783 157.8 21.2 .651 122
2024 09 07 13  22 29 58.298   -26 31 36.76  .80432 1.7783 157.7 21.2 .660 122
2024 09 07 14  22 29 56.325   -26 32 38.70  .80448 1.7783 157.7 21.2 .669 122
2024 09 07 15  22 29 54.354   -26 33 40.57  .80464 1.7783 157.6 21.2 .679 123
2024 09 07 16  22 29 52.384   -26 34 42.39  .80479 1.7783 157.6 21.2 .688 123
2024 09 07 17  22 29 50.415   -26 35 44.14  .80495 1.7783 157.5 21.2 .697 123
2024 09 07 18  22 29 48.448   -26 36 45.83  .80511 1.7783 157.5 21.2 .707 123